GW5679 Weather Reports


Display with metric or nautical units.
time (UTC)temp
F
wind
direction
speed
MPH
gust
MPH
rain 1hr
in
rain 24hr
in
rain mn
in
humidity
%
barometer
mb
20260831014458 88 161 10.0 10.0 0.00 0.00 0.00 65 1012.6
20260831013953 88 152 6.0 10.0 0.00 0.00 0.00 64 1012.7
20260831013449 88 142 7.0 9.0 0.00 0.00 0.00 63 1012.7
20260831012943 89 169 7.0 8.0 0.00 0.00 0.00 62 1012.8
20260831012438 89 143 7.0 10.0 0.00 0.00 0.00 62 1012.4
20260831011932 89 146 5.0 9.0 0.00 0.00 0.00 61 1012.6
20260831011427 89 159 6.0 9.0 0.00 0.00 0.00 61 1012.4
20260831010923 90 156 5.0 7.0 0.00 0.00 0.00 60 1012.5
20260831010417 90 120 5.0 7.0 0.00 0.00 0.00 59 1012.4
20260831005913 90 188 4.0 4.0 0.00 0.00 0.00 59 1012.5
20260831005409 90 128 4.0 9.0 0.00 0.00 0.00 58 1012.4
20260831004903 91 149 6.0 8.0 0.00 0.00 0.00 57 1012.5
20260831004400 91 157 9.0 13.0 0.00 0.00 0.00 56 1012.4
20260831003855 91 132 12.0 13.0 0.00 0.00 0.00 56 1012.3
20260831003351 92 148 4.0 7.0 0.00 0.00 0.00 55 1012.2
20260831002850 91 163 4.0 7.0 0.00 0.00 0.00 55 1012.3
20260831002349 92 136 5.0 10.0 0.00 0.00 0.00 53 1012.0
20260831001845 92 139 7.0 9.0 0.00 0.00 0.00 53 1012.3
20260831001339 93 149 3.0 10.0 0.00 0.00 0.00 51 1012.2
20260831000837 93 140 5.0 7.0 0.00 0.00 0.00 50 1012.1
20260831000340 94 105 5.0 7.0 0.00 0.00 0.00 49 1012.2
20260830235836 94 120 8.0 11.0 0.00 0.00 0.00 49 1012.2
20260830235331 94 136 6.0 11.0 0.00 0.00 0.00 48 1012.2
20260830234826 95 131 6.0 10.0 0.00 0.00 0.00 48 1012.2
20260830234322 95 133 8.0 14.0 0.00 0.00 0.00 46 1012.0
20260830233817 95 168 4.0 10.0 0.00 0.00 0.00 46 1012.1
20260830233313 95 156 6.0 9.0 0.00 0.00 0.00 46 1012.2
20260830232808 96 114 7.0 10.0 0.00 0.00 0.00 45 1012.1
20260830232306 96 128 4.0 9.0 0.00 0.00 0.00 46 1012.0
20260830231801 96 144 8.0 10.0 0.00 0.00 0.00 45 1012.0
20260830231300 96 144 5.0 16.0 0.00 0.00 0.00 45 1011.9
20260830230755 97 144 9.0 11.0 0.00 0.00 0.00 45 1011.9
20260830230250 96 133 5.0 9.0 0.00 0.00 0.00 45 1011.8
20260830225749 96 137 7.0 15.0 0.00 0.00 0.00 45 1011.8
20260830225245 97 171 5.0 11.0 0.00 0.00 0.00 42 1011.9
20260830224743 98 146 6.0 13.0 0.00 0.00 0.00 42 1011.8
20260830224239 99 168 9.0 10.0 0.00 0.00 0.00 40 1011.9
20260830223736 98 184 4.0 9.0 0.00 0.00 0.00 40 1012.0
20260830223231 98 152 5.0 13.0 0.00 0.00 0.00 41 1011.8
20260830222726 98 180 5.0 8.0 0.00 0.00 0.00 40 1011.8
20260830222221 98 139 4.0 8.0 0.00 0.00 0.00 40 1011.7
20260830221717 99 156 4.0 10.0 0.00 0.00 0.00 40 1011.9
20260830221214 99 172 7.0 10.0 0.00 0.00 0.00 39 1011.6
20260830220708 99 141 3.0 8.0 0.00 0.00 0.00 39 1011.9
20260830220207 101 186 7.0 8.0 0.00 0.00 0.00 37 1011.8
20260830215706 99 170 1.0 1.0 0.00 0.00 0.00 38 1011.7
20260830215201 100 163 4.0 8.0 0.00 0.00 0.00 38 1012.1
20260830214657 100 147 6.0 8.0 0.00 0.00 0.00 39 1011.8
20260830214156 100 165 7.0 10.0 0.00 0.00 0.00 38 1012.1
20260830213655 99 170 1.0 6.0 0.00 0.00 0.00 40 1011.8
20260830213151 99 188 6.0 13.0 0.00 0.00 0.00 39 1012.2
20260830212647 99 188 7.0 9.0 0.00 0.00 0.00 38 1012.2
20260830212142 99 178 4.0 7.0 0.00 0.00 0.00 39 1012.2
20260830211637 100 110 5.0 6.0 0.00 0.00 0.00 38 1012.3
20260830211136 99 157 3.0 7.0 0.00 0.00 0.00 39 1012.5
20260830210632 98 167 7.0 11.0 0.00 0.00 0.00 39 1012.4
20260830210131 98 171 0.0 3.0 0.00 0.00 0.00 40 1012.6
20260830205628 98 170 1.0 2.0 0.00 0.00 0.00 41 1012.6
20260830205124 97 146 8.0 10.0 0.00 0.00 0.00 41 1012.7
20260830204623 97 140 5.0 7.0 0.00 0.00 0.00 40 1012.8
20260830204122 98 183 10.0 11.0 0.00 0.00 0.00 39 1012.6
20260830203619 98 122 3.0 7.0 0.00 0.00 0.00 39 1012.9
20260830203119 99 191 6.0 8.0 0.00 0.00 0.00 38 1013.1
20260830202618 100 184 7.0 8.0 0.00 0.00 0.00 37 1013.0
20260830202114 99 221 1.0 3.0 0.00 0.00 0.00 40 1012.9
20260830201613 99 153 2.0 3.0 0.00 0.00 0.00 40 1013.1
20260830201108 99 151 5.0 7.0 0.00 0.00 0.00 38 1013.1
20260830200604 100 146 6.0 7.0 0.00 0.00 0.00 37 1013.3
20260830200103 100 188 6.0 10.0 0.00 0.00 0.00 37 1013.4
20260830195559 100 198 3.0 7.0 0.00 0.00 0.00 37 1013.3
20260830195056 98 154 2.0 4.0 0.00 0.00 0.00 40 1013.5
20260830194551 96 129 1.0 2.0 0.00 0.00 0.00 43 1013.7
20260830194050 97 161 0.0 4.0 0.00 0.00 0.00 42 1013.6
20260830193549 99 158 1.0 3.0 0.00 0.00 0.00 41 1013.7
20260830193045 100 187 0.0 8.0 0.00 0.00 0.00 39 1013.9
20260830192541 99 186 5.0 7.0 0.00 0.00 0.00 38 1014.0
20260830192041 100 160 2.0 4.0 0.00 0.00 0.00 39 1014.0
20260830191536 99 150 1.0 7.0 0.00 0.00 0.00 41 1014.2
20260830191031 98 135 2.0 6.0 0.00 0.00 0.00 43 1014.2
20260830190527 97 67 2.0 3.0 0.00 0.00 0.00 43 1014.3
20260830190022 98 151 0.0 7.0 0.00 0.00 0.00 42 1014.5
20260830185515 99 174 4.0 6.0 0.00 0.00 0.00 41 1014.2
20260830185011 100 128 2.0 3.0 0.00 0.00 0.00 40 1014.4
20260830184510 99 135 0.0 2.0 0.00 0.00 0.00 42 1014.6
20260830184005 98 61 3.0 3.0 0.00 0.00 0.00 42 1014.6
20260830183505 96 158 3.0 4.0 0.00 0.00 0.00 45 1014.4
20260830183001 98 294 4.0 4.0 0.00 0.00 0.00 43 1014.8
20260830182456 98 249 2.0 3.0 0.00 0.00 0.00 42 1014.9
20260830181952 98 159 2.0 2.0 0.00 0.00 0.00 42 1014.9
20260830181448 96 179 1.0 1.0 0.00 0.00 0.00 45 1015.0
20260830180942 95 42 1.0 3.0 0.00 0.00 0.00 46 1015.2
20260830180441 95 155 5.0 6.0 0.00 0.00 0.00 47 1015.2
20260830175940 96 157 3.0 7.0 0.00 0.00 0.00 47 1015.2
20260830175435 97 121 4.0 10.0 0.00 0.00 0.00 46 1015.4
20260830174931 97 228 2.0 3.0 0.00 0.00 0.00 45 1015.5
20260830174426 95 192 1.0 3.0 0.00 0.00 0.00 48 1015.6
20260830173921 94 134 0.0 1.0 0.00 0.00 0.00 50 1015.9
20260830173416 94 166 0.0 3.0 0.00 0.00 0.00 51 1015.8
20260830172912 96 201 4.0 7.0 0.00 0.00 0.00 48 1015.9
20260830172408 95 247 3.0 6.0 0.00 0.00 0.00 48 1015.9
20260830171903 95 140 3.0 4.0 0.00 0.00 0.00 50 1016.0
20260830171400 96 195 1.0 3.0 0.00 0.00 0.00 48 1015.9
20260830170859 96 167 2.0 3.0 0.00 0.00 0.00 46 1015.9
20260830170359 95 195 2.0 3.0 0.00 0.00 0.00 49 1015.9
20260830165857 95 164 0.0 3.0 0.00 0.00 0.00 50 1015.7
20260830165354 94 134 0.0 2.0 0.00 0.00 0.00 51 1016.0
20260830164850 93 196 3.0 4.0 0.00 0.00 0.00 52 1016.1
20260830164345 94 190 4.0 7.0 0.00 0.00 0.00 51 1016.1
20260830163842 95 160 3.0 6.0 0.00 0.00 0.00 51 1016.0
20260830163337 94 125 2.0 3.0 0.00 0.00 0.00 50 1016.1
20260830162837 94 161 1.0 3.0 0.00 0.00 0.00 51 1016.1
20260830162334 92 76 2.0 3.0 0.00 0.00 0.00 53 1016.1
20260830161834 92 87 3.0 4.0 0.00 0.00 0.00 54 1016.1
20260830161333 92 77 2.0 2.0 0.00 0.00 0.00 53 1016.1
20260830160829 90 162 2.0 3.0 0.00 0.00 0.00 55 1016.2
20260830160324 91 177 2.0 4.0 0.00 0.00 0.00 54 1016.3
20260830155819 94 143 2.0 4.0 0.00 0.00 0.00 53 1016.2
20260830155316 93 164 0.0 2.0 0.00 0.00 0.00 54 1016.2
20260830154816 92 149 4.0 4.0 0.00 0.00 0.00 55 1016.3
20260830154311 91 159 1.0 2.0 0.00 0.00 0.00 59 1016.4
20260830153808 92 211 2.0 3.0 0.00 0.00 0.00 54 1016.2
20260830153303 92 168 1.0 3.0 0.00 0.00 0.00 53 1016.0
20260830152801 92 156 2.0 4.0 0.00 0.00 0.00 57 1016.2
20260830152256 91 144 3.0 3.0 0.00 0.00 0.00 60 1016.2
20260830151756 89 149 0.0 2.0 0.00 0.00 0.00 62 1016.1
20260830151255 90 173 4.0 7.0 0.00 0.00 0.00 61 1016.1
20260830150751 89 133 1.0 3.0 0.00 0.00 0.00 65 1016.1
20260830150250 89 143 3.0 7.0 0.00 0.00 0.00 66 1016.1
20260830145745 89 185 2.0 6.0 0.00 0.00 0.00 66 1016.2
20260830145240 88 113 0.0 2.0 0.00 0.00 0.00 69 1016.1
20260830144735 88 176 3.0 3.0 0.00 0.00 0.00 66 1016.1
20260830144232 89 156 5.0 7.0 0.00 0.00 0.00 64 1016.0
20260830143727 89 136 0.0 0.0 0.00 0.00 0.00 68 1016.3
20260830143225 89 148 2.0 2.0 0.00 0.00 0.00 69 1016.1
20260830142721 88 141 2.0 2.0 0.00 0.00 0.00 71 1016.2
20260830142216 87 211 2.0 3.0 0.00 0.00 0.00 73 1016.2
20260830141711 86 195 1.0 2.0 0.00 0.00 0.00 74 1016.3
20260830141206 86 135 1.0 3.0 0.00 0.00 0.00 74 1016.2
20260830140701 86 182 3.0 4.0 0.00 0.00 0.00 74 1016.2
20260830140156 86 190 0.0 0.0 0.00 0.00 0.00 75 1016.5
20260830135651 86 166 1.0 1.0 0.00 0.00 0.00 76 1016.1
20260830135146 86 207 3.0 3.0 0.00 0.00 0.00 76 1015.9
20260830134642 85 189 2.0 6.0 0.00 0.00 0.00 77 1015.9
20260830134137 85 196 1.0 3.0 0.00 0.00 0.00 77 1015.9
20260830133632 84 143 0.0 2.0 0.00 0.00 0.00 78 1015.6
20260830133127 84 196 0.0 2.0 0.00 0.00 0.00 78 1015.7
20260830132624 84 164 1.0 2.0 0.00 0.00 0.00 79 1015.8
20260830132119 84 176 0.0 1.0 0.00 0.00 0.00 80 1015.7
20260830131618 83 205 2.0 2.0 0.00 0.00 0.00 80 1015.6
20260830131113 83 161 0.0 0.0 0.00 0.00 0.00 81 1015.6
20260830130608 82 161 0.0 0.0 0.00 0.00 0.00 82 1015.6
20260830125557 82 181 0.0 0.0 0.00 0.00 0.00 84 1015.7
20260830125056 81 160 0.0 0.0 0.00 0.00 0.00 85 1015.5
20260830124555 81 171 0.0 0.0 0.00 0.00 0.00 85 1015.3
20260830124051 80 181 0.0 0.0 0.00 0.00 0.00 86 1015.4
20260830123548 80 177 0.0 0.0 0.00 0.00 0.00 86 1015.4
20260830123043 80 168 0.0 0.0 0.00 0.00 0.00 86 1015.5
20260830122539 80 161 0.0 0.0 0.00 0.00 0.00 86 1015.4
20260830122035 80 146 0.0 0.0 0.00 0.00 0.00 86 1015.3
20260830121531 80 153 0.0 0.0 0.00 0.00 0.00 86 1015.2
20260830121030 80 145 0.0 0.0 0.00 0.00 0.00 86 1015.2
20260830120525 80 169 0.0 0.0 0.00 0.00 0.00 87 1015.2
20260830120023 80 157 0.0 0.0 0.00 0.00 0.00 87 1015.2
20260830115518 79 144 0.0 0.0 0.00 0.00 0.00 87 1015.2
20260830115013 80 159 0.0 0.0 0.00 0.00 0.00 86 1015.2
20260830114510 80 153 0.0 0.0 0.00 0.00 0.00 86 1015.3
20260830114009 80 162 0.0 0.0 0.00 0.00 0.00 86 1015.2
20260830113504 80 156 0.0 0.0 0.00 0.00 0.00 86 1015.2
20260830113000 80 158 0.0 0.0 0.00 0.00 0.00 86 1015.2
20260830112456 80 164 0.0 0.0 0.00 0.00 0.00 86 1015.0
20260830111952 80 164 0.0 1.0 0.00 0.00 0.00 85 1015.1
20260830111453 80 171 2.0 3.0 0.00 0.00 0.00 85 1014.9
20260830110948 80 157 1.0 2.0 0.00 0.00 0.00 85 1015.0
20260830110443 80 161 2.0 3.0 0.00 0.00 0.00 85 1015.0
20260830105943 80 172 1.0 2.0 0.00 0.00 0.00 86 1014.9
20260830105439 80 168 1.0 2.0 0.00 0.00 0.00 85 1014.8
20260830104935 80 166 1.0 2.0 0.00 0.00 0.00 86 1014.9
20260830104431 80 170 0.0 2.0 0.00 0.00 0.00 85 1014.8
20260830103926 80 182 2.0 3.0 0.00 0.00 0.00 85 1014.7
20260830103421 80 179 2.0 2.0 0.00 0.00 0.00 85 1014.7
20260830102919 80 184 1.0 2.0 0.00 0.00 0.00 85 1014.9
20260830102415 80 154 1.0 3.0 0.00 0.00 0.00 85 1014.8
20260830101912 81 180 2.0 2.0 0.00 0.00 0.00 85 1014.7
20260830101406 81 171 2.0 3.0 0.00 0.00 0.00 85 1014.7
20260830100906 81 178 2.0 4.0 0.00 0.00 0.00 85 1014.6
20260830100405 81 169 3.0 3.0 0.00 0.00 0.00 85 1014.6
20260830095904 80 164 1.0 2.0 0.00 0.00 0.00 85 1014.6
20260830095400 80 171 0.0 0.0 0.00 0.00 0.00 85 1014.6
20260830094856 80 169 0.0 0.0 0.00 0.00 0.00 85 1014.6
20260830094352 80 170 0.0 0.0 0.00 0.00 0.00 85 1014.5
20260830093848 80 170 1.0 2.0 0.00 0.00 0.00 85 1014.5
20260830093343 81 163 1.0 1.0 0.00 0.00 0.00 85 1014.6
20260830092838 81 172 0.0 1.0 0.00 0.00 0.00 85 1014.4
20260830092334 81 180 0.0 3.0 0.00 0.00 0.00 84 1014.5
20260830091830 81 196 2.0 3.0 0.00 0.00 0.00 84 1014.5
20260830091330 81 184 2.0 3.0 0.00 0.00 0.00 84 1014.4
20260830090829 81 207 2.0 3.0 0.00 0.00 0.00 84 1014.6
20260830090324 81 168 1.0 2.0 0.00 0.00 0.00 84 1014.6
20260830085818 81 186 2.0 3.0 0.00 0.00 0.00 84 1014.6
20260830085313 81 200 2.0 3.0 0.00 0.00 0.00 84 1014.6
20260830084809 81 198 2.0 4.0 0.00 0.00 0.00 84 1014.6
20260830084304 81 168 2.0 2.0 0.00 0.00 0.00 84 1014.4
20260830083759 81 197 1.0 3.0 0.00 0.00 0.00 84 1014.6
20260830083255 81 203 1.0 3.0 0.00 0.00 0.00 83 1014.8
20260830082754 81 195 2.0 4.0 0.00 0.00 0.00 84 1014.7
20260830082250 81 147 2.0 2.0 0.00 0.00 0.00 84 1014.7
20260830081745 81 190 1.0 2.0 0.00 0.00 0.00 84 1014.6
20260830081245 81 166 1.0 2.0 0.00 0.00 0.00 84 1014.7
20260830080739 81 141 1.0 2.0 0.00 0.00 0.00 84 1014.8
20260830080236 81 182 2.0 4.0 0.00 0.00 0.00 84 1014.9
20260830075734 81 147 2.0 2.0 0.00 0.00 0.00 84 1014.8
20260830075231 81 193 2.0 3.0 0.00 0.00 0.00 84 1014.7
20260830074731 81 209 2.0 3.0 0.00 0.00 0.00 84 1014.8
20260830074227 81 196 1.0 3.0 0.00 0.00 0.00 84 1014.8
20260830073723 82 184 1.0 3.0 0.00 0.00 0.00 84 1014.8
20260830073219 82 166 0.0 2.0 0.00 0.00 0.00 83 1014.9
20260830072719 82 164 1.0 3.0 0.00 0.00 0.00 83 1014.8
20260830072214 82 159 1.0 3.0 0.00 0.00 0.00 83 1015.0
20260830071708 82 188 3.0 4.0 0.00 0.00 0.00 83 1015.0
20260830071208 82 184 3.0 3.0 0.00 0.00 0.00 83 1015.1
20260830070702 82 198 3.0 3.0 0.00 0.00 0.00 83 1015.0
20260830070157 82 185 1.0 3.0 0.00 0.00 0.00 83 1014.9
20260830065655 82 195 2.0 3.0 0.00 0.00 0.00 83 1014.9
20260830065150 82 180 2.0 3.0 0.00 0.00 0.00 83 1014.9
20260830064649 82 180 1.0 2.0 0.00 0.00 0.00 82 1014.9
20260830064144 82 207 3.0 4.0 0.00 0.00 0.00 82 1014.9
20260830063644 82 206 3.0 4.0 0.00 0.00 0.00 82 1015.0
20260830063143 82 173 2.0 4.0 0.00 0.00 0.00 81 1014.8
20260830062638 82 184 3.0 4.0 0.00 0.00 0.00 81 1014.9
20260830062138 82 185 3.0 3.0 0.00 0.00 0.00 80 1014.8
20260830061633 82 187 2.0 2.0 0.00 0.00 0.00 80 1014.8
20260830061129 82 185 2.0 3.0 0.00 0.00 0.00 80 1014.7
20260830060626 82 174 1.0 3.0 0.00 0.00 0.00 79 1014.7
20260830060122 82 195 3.0 4.0 0.00 0.00 0.00 79 1014.8
20260830055616 82 194 2.0 6.0 0.00 0.00 0.00 79 1014.7
20260830055113 83 182 4.0 7.0 0.00 0.00 0.00 79 1014.8
20260830054608 83 204 3.0 7.0 0.00 0.00 0.00 79 1014.8
20260830054103 83 159 4.0 6.0 0.00 0.00 0.00 79 1014.9
20260830053559 83 198 1.0 4.0 0.00 0.00 0.00 78 1014.8
20260830053058 83 189 4.0 7.0 0.00 0.00 0.00 78 1014.7
20260830052554 83 161 2.0 7.0 0.00 0.00 0.00 78 1014.8
20260830052054 83 195 3.0 9.0 0.00 0.00 0.00 78 1014.9
20260830051549 83 178 3.0 6.0 0.00 0.00 0.00 77 1014.9
20260830051045 83 208 3.0 4.0 0.00 0.00 0.00 77 1014.7
20260830050538 83 198 4.0 6.0 0.00 0.00 0.00 77 1014.9
20260830050038 83 217 3.0 4.0 0.00 0.00 0.00 76 1014.9
20260830045536 83 173 3.0 7.0 0.00 0.00 0.00 76 1015.0
20260830045032 84 226 6.0 8.0 0.00 0.00 0.00 75 1015.0
20260830044526 84 155 4.0 6.0 0.00 0.00 0.00 75 1014.9
20260830044021 84 199 2.0 4.0 0.00 0.00 0.00 75 1014.8
20260830043517 84 173 4.0 6.0 0.00 0.00 0.00 75 1014.9
20260830043016 84 181 3.0 3.0 0.00 0.00 0.00 74 1015.2
20260830042514 84 152 4.0 7.0 0.00 0.00 0.00 74 1015.1
20260830042009 84 180 6.0 7.0 0.00 0.00 0.00 73 1015.0
20260830041508 84 168 3.0 8.0 0.00 0.00 0.00 73 1014.9
20260830041002 84 188 5.0 8.0 0.00 0.00 0.00 73 1015.1
20260830040458 84 180 6.0 7.0 0.00 0.00 0.00 72 1015.1
20260830035957 84 203 6.0 7.0 0.00 0.00 0.00 72 1014.8
20260830035456 84 137 4.0 6.0 0.00 0.00 0.00 72 1014.9
20260830034952 84 167 6.0 8.0 0.00 0.00 0.00 72 1014.9
20260830034448 85 197 3.0 8.0 0.00 0.00 0.00 71 1015.0
20260830033947 85 165 4.0 6.0 0.00 0.00 0.00 71 1014.9
20260830033442 85 172 7.0 8.0 0.00 0.00 0.00 71 1015.0
20260830032937 85 159 4.0 7.0 0.00 0.00 0.00 71 1014.8
20260830032436 85 191 4.0 7.0 0.00 0.00 0.00 71 1014.7
20260830031932 85 194 4.0 9.0 0.00 0.00 0.00 71 1014.9
20260830031428 85 174 2.0 6.0 0.00 0.00 0.00 71 1014.8
20260830030923 85 214 2.0 7.0 0.00 0.00 0.00 70 1014.7
20260830030419 86 185 4.0 6.0 0.00 0.00 0.00 70 1014.6
20260830025918 86 159 5.0 6.0 0.00 0.00 0.00 70 1014.8
20260830025418 86 199 5.0 6.0 0.00 0.00 0.00 70 1014.6
20260830024917 86 145 4.0 6.0 0.00 0.00 0.00 69 1014.7
20260830024413 86 195 6.0 8.0 0.00 0.00 0.00 69 1014.6
20260830023910 86 185 3.0 3.0 0.00 0.00 0.00 68 1014.5
20260830023409 87 197 5.0 8.0 0.00 0.00 0.00 68 1014.5
20260830022908 87 172 4.0 7.0 0.00 0.00 0.00 68 1014.4
20260830022403 87 189 5.0 9.0 0.00 0.00 0.00 68 1014.2
20260830021903 87 136 5.0 9.0 0.00 0.00 0.00 68 1014.1
20260830021358 87 149 6.0 10.0 0.00 0.00 0.00 68 1014.1
20260830020852 87 161 6.0 9.0 0.00 0.00 0.00 68 1013.9
20260830020346 87 180 6.0 9.0 0.00 0.00 0.00 68 1013.9
20260830015842 87 104 4.0 8.0 0.00 0.00 0.00 67 1013.7
20260830015336 87 139 7.0 9.0 0.00 0.00 0.00 68 1013.8
20260830014832 87 158 7.0 9.0 0.00 0.00 0.00 68 1013.7